Hourly Data Report for November 23, 2020

VANCOUVER INTL A
BRITISH COLUMBIA
Current Station Operator: NAVCAN

49°11'41.000" N
123°11'02.000" W
4.30 m
1108395
71892
YVR

Download Data

Hourly Data (November 2020)
Hourly Data Report for November 23, 2020
TIME
LST
Temp Definition
°C
Dew Point Definition
°C
Rel Hum Definition
%
Precip. Amount Definition
mm

Wind Dir Definition
10's deg

Wind Spd Definition
km/h
Visibility Definition
km
Stn Press Definition
kPa
Hmdx Definition


Wind Chill Definition


Weather Definition


00:00 5.7 4.8 94   9 16 24.1 101.17     LegendNANA
01:00 5.6 4.6 93   10 17 24.1 101.10     Cloudy
02:00 5.5 4.6 94   9 13 24.1 101.13     Rain, Drizzle
03:00 5.5 4.9 95   6 14 17.7 101.19     Moderate Rain
04:00 5.7 4.9 95   6 13 24.1 101.18     Rain
05:00 5.6 4.1 90   6 13 24.1 101.20     LegendNANA
06:00 5.4 4.5 94   5 13 17.7 101.24     Rain
07:00 5.6 5.0 96   5 10 17.7 101.30     Rain
08:00 5.6 4.9 95   5 14 6.4 101.37     Rain, Fog
09:00 5.5 5.0 96   7 12 12.9 101.45     Rain
10:00 5.8 4.9 93   9 13 19.3 101.51     Cloudy
11:00 6.2 5.0 92   10 13 16.1 101.59     LegendNANA
12:00 6.2 5.5 95   10 15 12.9 101.61     Drizzle
13:00 6.9 5.2 89   8 13 19.3 101.63     Cloudy
14:00 6.8 4.8 87   10 7 19.3 101.71     LegendNANA
15:00 6.8 4.8 87   12 9 19.3 101.74     LegendNANA
16:00 6.8 4.8 88   11 9 24.1 101.79     Cloudy
17:00 5.5 4.5 93   9 12 24.1 101.81     LegendNANA
18:00 6.5 5.1 91   11 14 24.1 101.85     LegendNANA
19:00 6.7 5.2 90   10 13 24.1 101.89     Mostly Cloudy
20:00 6.3 5.0 91   9 10 24.1 101.94     LegendNANA
21:00 6.6 4.8 88   7 13 24.1 101.97     LegendNANA
22:00 6.5 5.2 91   8 10 24.1 101.99     Cloudy
23:00 6.5 5.1 90   8 16 24.1 101.97     LegendNANA

Notes on Data Quality.

Legend

  • E = Estimated
  • M = Missing
  • NA = Not Available*
  • [empty] = Indicates an unobserved value
Date modified: